This is the latest recevied weather packets stored in our database for station/object KI5RAB. If no packets are shown the sender has not sent any weather packets the latest 10 day(s).
| Time | Temp. | Humidity | Pressure | Rain* | Wind** | Luminosity | Snow |
|---|---|---|---|---|---|---|---|
| 1777621185 | 17.22° C | 97% | 1015.1 hPa | 9.65 mm | - | 0 W/m² | - |
| 1777620881 | 17.22° C | 97% | 1015.2 hPa | 6.1 mm | - | 0 W/m² | - |
| 1777620577 | 17.22° C | 97% | 1016.2 hPa | 3.05 mm | - | 0 W/m² | - |
| 1777620274 | 17.22° C | 97% | 1016 hPa | 0 mm | - | 0 W/m² | - |
| 1777619971 | 17.22° C | 97% | 1015.6 hPa | 0 mm | - | 0 W/m² | - |
| 1777619667 | 17.22° C | 97% | 1014.6 hPa | 0 mm | - | 0 W/m² | - |
| 1777619361 | 17.22° C | 97% | 1014.6 hPa | 1.78 mm | - | 0 W/m² | - |
| 1777619056 | 17.22° C | 97% | 1014.9 hPa | 1.78 mm | - | 0 W/m² | - |
| 1777618756 | 17.22° C | 97% | 1014.9 hPa | 1.78 mm | - | 0 W/m² | - |
| 1777618451 | 17.22° C | 97% | 1014.4 hPa | 1.27 mm | - | 0 W/m² | - |
| 1777618149 | 17.22° C | 97% | 1014.6 hPa | 6.1 mm | - | 0 W/m² | - |
| 1777617845 | 17.22° C | 97% | 1014.6 hPa | 7.87 mm | - | 0 W/m² | - |
| 1777617544 | 17.78° C | 97% | 1014.9 hPa | 6.1 mm | - | 0 W/m² | - |
| 1777617242 | 17.78° C | 97% | 1015.6 hPa | 6.1 mm | - | 0 W/m² | - |
| 1777616939 | 17.78° C | 96% | 1015.8 hPa | 7.87 mm | - | 0 W/m² | - |
| 1777616634 | 17.78° C | 96% | 1015.9 hPa | 3.05 mm | - | 0 W/m² | - |
| 1777616329 | 17.78° C | 96% | 1015.1 hPa | 1.78 mm | - | 0 W/m² | - |
| 1777616026 | 17.78° C | 96% | 1015.2 hPa | 1.78 mm | - | 0 W/m² | - |
| 1777615723 | 17.78° C | 96% | 1014.8 hPa | 0 mm | - | 0 W/m² | - |
| 1777615420 | 17.78° C | 96% | 1014.4 hPa | 0 mm | - | 0 W/m² | - |
| 1777615119 | 17.78° C | 96% | 1014.5 hPa | 1.27 mm | - | 0 W/m² | - |
| 1777614815 | 17.78° C | 95% | 1014.7 hPa | 3.05 mm | - | 0 W/m² | - |
| 1777614512 | 17.78° C | 95% | 1014.7 hPa | 3.05 mm | - | 0 W/m² | - |
| 1777614207 | 17.78° C | 95% | 1014.3 hPa | 11.94 mm | - | 0 W/m² | - |
| 1777613903 | 18.33° C | 94% | 1015.1 hPa | 30.73 mm | - | 0 W/m² | - |
* Rain latest hour (hover to see other rain measurements)
** Current wind speed in m/s (hover to see current wind gust speed)